Location: Songkhla
(7.2000°N, 100.6000°E)
Time: 07:46:18
(UTC+07:00)

Resurs 1-3 - Pass Details

Date: 16 April 2026
Orbit: 612 x 615 km, 97.7° (Epoch: 17 May)

Event Time Altitude Azimuth Distance (km) Brightness Sun altitude
Rises 18:45:32 0° 161° (SSE) 2,874 6.7 -5.6°
Reaches altitude 10° 18:47:44 10° 157° (SSE) 1,968 5.8 -6.1°
Maximum altitude 18:51:57 58° 78° (ENE) 714 3.6 -7.1°
Drops below altitude 10° 18:56:09 10° 359° (N) 1,966 6.3 -8.2°
Sets 18:58:21 0° 355° (N) 2,869 7.2 -8.7°
